IRIDIUM 167 (43931 NORAD) Tracking and Keplerian Element Data

This shows tracking and keplerian element data for the satellite.

Feedback or suggestion? Click here.




ElementValue
Catalog43931
NameIRIDIUM 167
Epoch Orbit422
Epoch Day40.95075935
Epoch Year2019
RAAN35.2968
Inclination86.3953
Eccentricity0.0001131
Argument of Perigee54.834
Mean Anonmoly305.2961
Mean Motion14.34216914
Decay Rate1.4E-07
L11 43931U 19002K 19040.95075935 .00000014 00000-0 -20528-5 0 9997
L22 43931 86.3953 35.2968 0001131 54.8340 305.2961 14.34216914 4228

Live tracking and technical data element details for IRIDIUM 167 (NORAD 43931). IRIDIUM 167 can be tracked NOW for your location showing map with azimuth and elevation plus other details from your city location.

Track the satellite on the map from your city or location and see movement details for azimuth, elevation, latitude, longitude, range, height, and movement on the map or in text.







IsCatalogInMostPopularTable: catalog: 43931, numindb: 158
Update: records affected: 1



GetName: 43931 IRIDIUM 167

Hit Count: updated at: Fri, 19 Jul 2019 23:30:28 GMT